Hourly Data Report for October 22, 2014

All times are specified in Local Standard Time (LST). Add 1 hour to adjust for Daylight Saving Time where and when it is observed.

KAMLOOPS A
BRITISH COLUMBIA

50°42'09.000" N
120°26'55.000" W
345.30 m
1163781
71887
YKA

Download Data

Hourly Data (October 2014)
Hourly Data Report for October 22, 2014
Temp Definition
°C
Dew Point Temp Definition
°C
Rel Hum Definition
%
Wind Dir Definition
10's deg

Wind Spd Definition
km/h
Visibility Definition
km
Stn Press Definition
kPa
Hmdx Definition


Wind Chill Definition


Weather Definition


TIME
00:00 Legend Double Dagger 12.3 5.1 61 9 15 64.4 96.50     LegendNANA
01:00 Legend Double Dagger 14.6 3.2 46 12 23 64.4 96.40     Cloudy
02:00 Legend Double Dagger 14.7 2.7 44 11 23 64.4 96.35     LegendNANA
03:00 Legend Double Dagger 14.6 3.2 46 11 26 64.4 96.27     LegendNANA
04:00 Legend Double Dagger 14.8 3.4 46 10 21 64.4 96.25     Cloudy
05:00 Legend Double Dagger 15.1 3.0 44 11 27 64.4 96.30     LegendNANA
06:00 Legend Double Dagger 12.8 5.3 60 9 21 64.4 96.36     LegendNANA
07:00 Legend Double Dagger 13.1 4.8 57 7 27 64.4 96.40     Mostly Cloudy
08:00 Legend Double Dagger 13.2 4.9 57 6 22 64.4 96.41     Rain Showers
09:00 Legend Double Dagger 13.7 5.9 59 10 32 64.4 96.41     LegendNANA
10:00 Legend Double Dagger 15.1 5.1 51 8 22 64.4 96.40     Mostly Cloudy
11:00 Legend Double Dagger 16.4 5.5 48 11 28 64.4 96.39     LegendNANA
12:00 Legend Double Dagger 16.1 4.6 46 11 28 64.4 96.37     LegendNANA
13:00 Legend Double Dagger 15.4 5.1 50 12 26 64.4 96.38     Mostly Cloudy
14:00 Legend Double Dagger 15.3 4.7 49 8 21 64.4 96.32     LegendNANA
15:00 Legend Double Dagger 15.3 4.4 48 10 14 64.4 96.30     LegendNANA
16:00 Legend Double Dagger 14.5 4.3 50 15 27 64.4 96.28     Cloudy
17:00 Legend Double Dagger 13.9 4.6 53 11 26 64.4 96.22     LegendNANA
18:00 Legend Double Dagger 12.5 6.4 66 10 26 64.4 96.16     LegendNANA
19:00 Legend Double Dagger 11.9 6.4 69 8 16 64.4 96.08     Cloudy
20:00 Legend Double Dagger 10.4 8.0 85 9 18 48.3 95.98     Rain
21:00 Legend Double Dagger 10.5 7.9 84 9 18 48.3 95.90     LegendNANA
22:00 Legend Double Dagger 10.6 7.7 82 11 22 48.3 95.81     Cloudy
23:00 Legend Double Dagger 10.5 7.4 81 8 26 64.4 95.77     LegendNANA

Notes on Data Quality.

Legend

  • E = Estimated
  • M = Missing
  • NA = Not Available
  • ‡ = Partner data that is not subject to review by the National Climate Archives
Date modified: